Time,TemperatureF,DewpointF,PressureIn,WindDirection,WindDirectionDegrees,WindSpeedMPH,WindSpeedGustMPH,Humidity,HourlyPrecipIn,Conditions,Clouds,dailyrainin,SoftwareType,DateUTC
2013-02-03 00:00:00,24.4,22.4,30.20,NE,53,0.0,0.0,92,0.00,,,0.00,Wunderground v.1.12,2013-02-03 07:00:00,
2013-02-03 00:05:00,24.3,22.3,30.21,NE,53,0.0,0.0,92,0.00,,,0.00,Wunderground v.1.12,2013-02-03 07:05:00,
2013-02-03 00:10:00,24.4,22.4,30.21,NE,53,0.0,0.0,92,0.00,,,0.00,Wunderground v.1.12,2013-02-03 07:10:00,
2013-02-03 00:15:00,24.2,22.2,30.20,NE,53,0.0,0.0,92,0.00,,,0.00,Wunderground v.1.12,2013-02-03 07:15:00,
2013-02-03 00:20:00,24.2,22.5,30.20,NE,53,0.0,0.0,93,0.00,,,0.00,Wunderground v.1.12,2013-02-03 07:20:00,
2013-02-03 00:25:00,24.0,22.0,30.20,NE,53,0.0,0.0,92,0.00,,,0.00,Wunderground v.1.12,2013-02-03 07:25:00,
2013-02-03 00:30:00,23.6,21.9,30.20,NE,53,0.0,0.0,93,0.00,,,0.00,Wunderground v.1.12,2013-02-03 07:30:00,
2013-02-03 00:35:00,23.7,22.0,30.20,NE,53,0.0,0.0,93,0.00,,,0.00,Wunderground v.1.12,2013-02-03 07:35:00,
2013-02-03 00:45:00,23.4,21.4,30.19,NE,53,0.0,0.0,92,0.00,,,0.00,Wunderground v.1.12,2013-02-03 07:45:00,
2013-02-03 00:50:00,23.8,21.8,30.20,NE,53,0.0,0.0,92,0.00,,,0.00,Wunderground v.1.12,2013-02-03 07:50:00,
2013-02-03 00:55:00,23.5,21.5,30.19,NE,53,0.0,0.0,92,0.00,,,0.00,Wunderground v.1.12,2013-02-03 07:55:00,
2013-02-03 01:00:00,23.6,21.6,30.19,NE,53,0.0,0.0,92,0.00,,,0.00,Wunderground v.1.12,2013-02-03 08:00:00,
2013-02-03 01:05:00,23.5,21.5,30.19,NE,53,0.0,0.0,92,0.00,,,0.00,Wunderground v.1.12,2013-02-03 08:05:00,
2013-02-03 01:15:00,23.1,21.1,30.18,NE,53,0.0,0.0,92,0.00,,,0.00,Wunderground v.1.12,2013-02-03 08:15:00,
2013-02-03 01:20:00,23.1,21.1,30.18,NE,53,0.0,0.0,92,0.00,,,0.00,Wunderground v.1.12,2013-02-03 08:20:00,
2013-02-03 01:25:00,23.1,21.4,30.18,NE,44,0.0,0.0,93,0.00,,,0.00,Wunderground v.1.12,2013-02-03 08:25:00,
2013-02-03 01:30:00,23.1,21.4,30.18,NE,45,0.0,0.0,93,0.00,,,0.00,Wunderground v.1.12,2013-02-03 08:30:00,
2013-02-03 01:35:00,22.8,20.8,30.18,NE,44,0.0,0.0,92,0.00,,,0.00,Wunderground v.1.12,2013-02-03 08:35:00,
2013-02-03 01:45:00,23.0,21.3,30.18,NE,44,0.0,0.0,93,0.00,,,0.00,Wunderground v.1.12,2013-02-03 08:45:00,
2013-02-03 01:50:00,23.2,21.5,30.17,NE,52,0.0,0.0,93,0.00,,,0.00,Wunderground v.1.12,2013-02-03 08:50:00,
2013-02-03 01:55:00,22.5,20.8,30.17,NE,51,0.0,0.0,93,0.00,,,0.00,Wunderground v.1.12,2013-02-03 08:55:00,
2013-02-03 02:00:00,23.1,21.4,30.17,NE,51,0.0,0.0,93,0.00,,,0.00,Wunderground v.1.12,2013-02-03 09:00:00,
2013-02-03 02:05:00,22.9,20.9,30.17,NE,51,0.0,0.0,92,0.00,,,0.00,Wunderground v.1.12,2013-02-03 09:05:00,
2013-02-03 02:10:00,23.0,21.3,30.18,NE,51,0.0,0.0,93,0.00,,,0.00,Wunderground v.1.12,2013-02-03 09:10:00,
2013-02-03 02:20:00,22.7,21.0,30.18,NE,51,0.0,0.0,93,0.00,,,0.00,Wunderground v.1.12,2013-02-03 09:20:00,
2013-02-03 02:25:00,22.9,21.2,30.17,NE,51,0.0,0.0,93,0.00,,,0.00,Wunderground v.1.12,2013-02-03 09:25:00,
2013-02-03 02:30:00,22.7,21.0,30.17,NE,51,0.0,0.0,93,0.00,,,0.00,Wunderground v.1.12,2013-02-03 09:30:00,
2013-02-03 02:35:00,22.3,20.6,30.17,NE,46,0.0,0.0,93,0.00,,,0.00,Wunderground v.1.12,2013-02-03 09:35:00,
2013-02-03 02:40:00,22.6,20.6,30.17,NE,47,0.0,0.0,92,0.00,,,0.00,Wunderground v.1.12,2013-02-03 09:40:00,
2013-02-03 02:45:00,23.0,21.0,30.17,NE,47,0.0,0.0,92,0.00,,,0.00,Wunderground v.1.12,2013-02-03 09:45:00,
2013-02-03 02:50:00,22.5,20.5,30.17,NE,47,0.0,0.0,92,0.00,,,0.00,Wunderground v.1.12,2013-02-03 09:50:00,
2013-02-03 02:55:00,22.5,20.5,30.16,NE,46,0.0,0.0,92,0.00,,,0.00,Wunderground v.1.12,2013-02-03 09:55:00,
2013-02-03 03:00:00,22.3,20.3,30.16,NE,47,0.0,0.0,92,0.00,,,0.00,Wunderground v.1.12,2013-02-03 10:00:00,
2013-02-03 03:05:00,22.3,20.6,30.16,NE,46,0.0,0.0,93,0.00,,,0.00,Wunderground v.1.12,2013-02-03 10:05:00,
2013-02-03 03:10:00,22.5,20.5,30.15,NE,47,0.0,0.0,92,0.00,,,0.00,Wunderground v.1.12,2013-02-03 10:10:00,
2013-02-03 03:20:00,22.1,20.4,30.15,NE,47,0.0,0.0,93,0.00,,,0.00,Wunderground v.1.12,2013-02-03 10:20:00,
2013-02-03 03:25:00,22.0,20.0,30.15,NE,46,0.0,0.0,92,0.00,,,0.00,Wunderground v.1.12,2013-02-03 10:25:00,
2013-02-03 03:30:00,22.3,20.3,30.15,NE,46,0.0,0.0,92,0.00,,,0.00,Wunderground v.1.12,2013-02-03 10:30:00,
2013-02-03 03:35:00,22.2,20.2,30.15,NE,47,0.0,0.0,92,0.00,,,0.00,Wunderground v.1.12,2013-02-03 10:35:00,
2013-02-03 03:40:00,22.1,20.1,30.14,NE,47,0.0,0.0,92,0.00,,,0.00,Wunderground v.1.12,2013-02-03 10:40:00,
2013-02-03 03:45:00,22.3,20.6,30.14,NE,46,0.0,0.0,93,0.00,,,0.00,Wunderground v.1.12,2013-02-03 10:45:00,
2013-02-03 03:55:00,21.8,19.8,30.14,NE,47,0.0,0.0,92,0.00,,,0.00,Wunderground v.1.12,2013-02-03 10:55:00,
2013-02-03 04:00:00,21.9,20.2,30.14,NE,46,0.0,0.0,93,0.00,,,0.00,Wunderground v.1.12,2013-02-03 11:00:00,
2013-02-03 04:05:00,21.6,19.9,30.13,NE,46,0.0,0.0,93,0.00,,,0.00,Wunderground v.1.12,2013-02-03 11:05:00,
2013-02-03 04:10:00,21.4,19.7,30.13,NE,46,0.0,0.0,93,0.00,,,0.00,Wunderground v.1.12,2013-02-03 11:10:00,
2013-02-03 04:15:00,21.3,19.6,30.14,NE,46,0.0,0.0,93,0.00,,,0.00,Wunderground v.1.12,2013-02-03 11:15:00,
2013-02-03 04:20:00,21.8,20.1,30.14,NE,46,0.0,0.0,93,0.00,,,0.00,Wunderground v.1.12,2013-02-03 11:20:00,
2013-02-03 04:25:00,22.0,20.3,30.14,NE,46,0.0,0.0,93,0.00,,,0.00,Wunderground v.1.12,2013-02-03 11:25:00,
2013-02-03 04:30:00,21.2,19.5,30.13,NE,46,0.0,0.0,93,0.00,,,0.00,Wunderground v.1.12,2013-02-03 11:30:00,
2013-02-03 04:35:00,21.5,19.8,30.13,NE,46,0.0,0.0,93,0.00,,,0.00,Wunderground v.1.12,2013-02-03 11:35:00,
2013-02-03 04:40:00,21.4,19.7,30.13,NE,39,0.0,0.0,93,0.00,,,0.00,Wunderground v.1.12,2013-02-03 11:40:00,
2013-02-03 04:45:00,21.4,19.4,30.14,NE,48,0.0,0.0,92,0.00,,,0.00,Wunderground v.1.12,2013-02-03 11:45:00,
2013-02-03 04:55:00,21.5,19.5,30.13,NE,48,0.0,0.0,92,0.00,,,0.00,Wunderground v.1.12,2013-02-03 11:55:00,
2013-02-03 05:00:00,21.2,19.2,30.13,NE,48,0.0,0.0,92,0.00,,,0.00,Wunderground v.1.12,2013-02-03 12:00:00,
2013-02-03 05:05:00,21.2,19.5,30.13,NE,48,0.0,0.0,93,0.00,,,0.00,Wunderground v.1.12,2013-02-03 12:05:00,
2013-02-03 05:10:00,20.8,19.1,30.13,NE,48,0.0,0.0,93,0.00,,,0.00,Wunderground v.1.12,2013-02-03 12:10:00,
2013-02-03 05:15:00,21.3,19.6,30.12,NE,48,0.0,0.0,93,0.00,,,0.00,Wunderground v.1.12,2013-02-03 12:15:00,
2013-02-03 05:20:00,20.9,19.2,30.12,NE,48,0.0,0.0,93,0.00,,,0.00,Wunderground v.1.12,2013-02-03 12:20:00,
2013-02-03 05:30:00,21.1,19.4,30.12,NE,48,0.0,0.0,93,0.00,,,0.00,Wunderground v.1.12,2013-02-03 12:30:00,
2013-02-03 05:35:00,20.6,18.6,30.12,NE,48,0.0,0.0,92,0.00,,,0.00,Wunderground v.1.12,2013-02-03 12:35:00,
2013-02-03 05:40:00,21.1,19.4,30.11,NE,48,0.0,0.0,93,0.00,,,0.00,Wunderground v.1.12,2013-02-03 12:40:00,
2013-02-03 05:45:00,20.8,18.8,30.12,NE,48,0.0,0.0,92,0.00,,,0.00,Wunderground v.1.12,2013-02-03 12:45:00,
2013-02-03 05:50:00,21.1,19.4,30.11,NE,48,0.0,0.0,93,0.00,,,0.00,Wunderground v.1.12,2013-02-03 12:50:00,
2013-02-03 05:55:00,20.6,18.6,30.11,NE,48,0.0,0.0,92,0.00,,,0.00,Wunderground v.1.12,2013-02-03 12:55:00,
2013-02-03 06:00:00,20.5,18.8,30.12,NE,48,0.0,0.0,93,0.00,,,0.00,Wunderground v.1.12,2013-02-03 13:00:00,
2013-02-03 06:05:00,20.5,19.0,30.12,NE,48,0.0,0.0,94,0.00,,,0.00,Wunderground v.1.12,2013-02-03 13:05:00,
2013-02-03 06:10:00,20.5,19.0,30.11,NE,48,0.0,0.0,94,0.00,,,0.00,Wunderground v.1.12,2013-02-03 13:10:00,
2013-02-03 06:15:00,20.6,19.1,30.11,NE,47,0.0,0.0,94,0.00,,,0.00,Wunderground v.1.12,2013-02-03 13:15:00,
2013-02-03 06:20:00,20.6,19.1,30.11,NE,48,0.0,0.0,94,0.00,,,0.00,Wunderground v.1.12,2013-02-03 13:20:00,
2013-02-03 06:30:00,20.4,18.9,30.11,NE,47,0.0,0.0,94,0.00,,,0.00,Wunderground v.1.12,2013-02-03 13:30:00,
2013-02-03 06:35:00,20.6,19.1,30.11,NE,50,0.0,0.0,94,0.00,,,0.00,Wunderground v.1.12,2013-02-03 13:35:00,
2013-02-03 06:40:00,20.7,19.2,30.11,NE,34,0.0,0.0,94,0.00,,,0.00,Wunderground v.1.12,2013-02-03 13:40:00,
2013-02-03 06:45:00,21.0,19.5,30.11,NE,35,0.0,0.0,94,0.00,,,0.00,Wunderground v.1.12,2013-02-03 13:45:00,
2013-02-03 06:55:00,21.0,19.5,30.12,NE,40,0.0,0.0,94,0.00,,,0.00,Wunderground v.1.12,2013-02-03 13:55:00,
2013-02-03 07:05:00,20.9,19.4,30.12,NE,43,0.0,0.0,94,0.00,,,0.00,Wunderground v.1.12,2013-02-03 14:05:00,
2013-02-03 07:15:00,21.2,20.0,30.11,NE,38,0.0,0.0,95,0.00,,,0.00,Wunderground v.1.12,2013-02-03 14:15:00,
2013-02-03 07:20:00,21.2,20.0,30.11,NE,38,0.0,0.0,95,0.00,,,0.00,Wunderground v.1.12,2013-02-03 14:20:00,
2013-02-03 07:25:00,21.0,19.8,30.11,NE,38,0.0,0.0,95,0.00,,,0.00,Wunderground v.1.12,2013-02-03 14:25:00,
2013-02-03 07:30:00,21.0,19.5,30.11,NE,38,0.0,0.0,94,0.00,,,0.00,Wunderground v.1.12,2013-02-03 14:30:00,
2013-02-03 07:35:00,21.1,19.9,30.11,N/A,-737280,0.0,0.0,95,0.00,,,0.00,Wunderground v.1.12,2013-02-03 14:35:00,
2013-02-03 07:40:00,21.1,19.9,30.11,NE,38,0.0,0.0,95,0.00,,,0.00,Wunderground v.1.12,2013-02-03 14:40:00,
2013-02-03 07:45:00,21.5,20.3,30.11,NE,38,0.0,0.0,95,0.00,,,0.00,Wunderground v.1.12,2013-02-03 14:45:00,
2013-02-03 07:50:00,21.6,20.4,30.11,NE,38,0.0,0.0,95,0.00,,,0.00,Wunderground v.1.12,2013-02-03 14:50:00,
2013-02-03 07:55:00,21.3,20.3,30.12,NE,38,0.0,0.0,96,0.00,,,0.00,Wunderground v.1.12,2013-02-03 14:55:00,
2013-02-03 08:05:00,21.9,20.7,30.12,NE,38,0.0,0.0,95,0.00,,,0.00,Wunderground v.1.12,2013-02-03 15:05:00,
2013-02-03 08:10:00,21.7,20.5,30.12,NE,53,0.0,0.0,95,0.00,,,0.00,Wunderground v.1.12,2013-02-03 15:10:00,
2013-02-03 08:15:00,21.9,20.7,30.12,NE,53,0.0,0.0,95,0.00,,,0.00,Wunderground v.1.12,2013-02-03 15:15:00,
2013-02-03 08:20:00,22.2,21.0,30.12,NE,53,0.0,0.0,95,0.00,,,0.00,Wunderground v.1.12,2013-02-03 15:20:00,
2013-02-03 08:25:00,22.1,21.1,30.12,NE,53,0.0,0.0,96,0.00,,,0.00,Wunderground v.1.12,2013-02-03 15:25:00,
2013-02-03 08:30:00,22.2,21.2,30.12,NE,53,0.0,0.0,96,0.00,,,0.00,Wunderground v.1.12,2013-02-03 15:30:00,
2013-02-03 08:40:00,22.4,21.4,30.11,NE,53,0.0,0.0,96,0.00,,,0.00,Wunderground v.1.12,2013-02-03 15:40:00,
2013-02-03 08:45:00,22.3,21.3,30.11,NE,53,0.0,0.0,96,0.00,,,0.00,Wunderground v.1.12,2013-02-03 15:45:00,
2013-02-03 08:50:00,22.6,21.6,30.12,NE,53,0.0,0.0,96,0.00,,,0.00,Wunderground v.1.12,2013-02-03 15:50:00,
2013-02-03 08:55:00,22.7,22.0,30.11,NE,53,0.0,0.0,97,0.00,,,0.00,Wunderground v.1.12,2013-02-03 15:55:00,
2013-02-03 09:00:00,22.7,22.0,30.11,NE,53,0.0,0.0,97,0.00,,,0.00,Wunderground v.1.12,2013-02-03 16:00:00,
2013-02-03 09:05:00,23.1,22.6,30.11,NE,53,0.0,0.0,98,0.00,,,0.00,Wunderground v.1.12,2013-02-03 16:05:00,
2013-02-03 09:15:00,23.6,23.1,30.12,NE,53,0.0,0.0,98,0.00,,,0.00,Wunderground v.1.12,2013-02-03 16:15:00,
2013-02-03 09:20:00,24.0,23.5,30.12,NE,53,0.0,0.0,98,0.00,,,0.00,Wunderground v.1.12,2013-02-03 16:20:00,
2013-02-03 09:25:00,24.0,23.5,30.12,NE,53,0.0,0.0,98,0.00,,,0.00,Wunderground v.1.12,2013-02-03 16:25:00,
2013-02-03 09:30:00,24.3,24.1,30.12,NE,53,0.0,0.0,99,0.00,,,0.00,Wunderground v.1.12,2013-02-03 16:30:00,
2013-02-03 09:40:00,24.3,24.1,30.12,NE,53,0.0,0.0,99,0.00,,,0.00,Wunderground v.1.12,2013-02-03 16:40:00,
2013-02-03 09:45:00,24.4,24.2,30.12,NE,53,0.0,0.0,99,0.00,,,0.00,Wunderground v.1.12,2013-02-03 16:45:00,
2013-02-03 09:55:00,24.9,24.7,30.12,NE,53,0.0,0.0,99,0.00,,,0.00,Wunderground v.1.12,2013-02-03 16:55:00,
2013-02-03 10:00:00,24.6,24.1,30.12,NE,53,0.0,0.0,98,0.00,,,0.00,Wunderground v.1.12,2013-02-03 17:00:00,
2013-02-03 10:05:00,24.9,24.7,30.13,NE,53,0.0,0.0,99,0.00,,,0.00,Wunderground v.1.12,2013-02-03 17:05:00,
2013-02-03 10:10:00,25.3,24.8,30.13,NE,53,0.0,0.0,98,0.00,,,0.00,Wunderground v.1.12,2013-02-03 17:10:00,
2013-02-03 10:15:00,25.6,25.4,30.13,NE,53,0.0,0.0,99,0.00,,,0.00,Wunderground v.1.12,2013-02-03 17:15:00,
2013-02-03 10:20:00,25.8,25.6,30.12,NE,53,0.0,0.0,99,0.00,,,0.00,Wunderground v.1.12,2013-02-03 17:20:00,
2013-02-03 10:25:00,25.9,25.4,30.12,NE,53,0.0,0.0,98,0.00,,,0.00,Wunderground v.1.12,2013-02-03 17:25:00,
2013-02-03 10:30:00,26.2,26.0,30.12,NE,53,0.0,0.0,99,0.00,,,0.00,Wunderground v.1.12,2013-02-03 17:30:00,
2013-02-03 10:35:00,26.5,26.3,30.12,NE,53,0.0,0.0,99,0.00,,,0.00,Wunderground v.1.12,2013-02-03 17:35:00,
2013-02-03 10:45:00,26.6,26.1,30.13,SSE,154,0.0,0.0,98,0.00,,,0.00,Wunderground v.1.12,2013-02-03 17:45:00,
2013-02-03 10:50:00,26.8,26.3,30.13,SSE,154,0.0,0.0,98,0.00,,,0.00,Wunderground v.1.12,2013-02-03 17:50:00,
2013-02-03 10:55:00,26.8,26.3,30.13,SSE,154,0.0,0.0,98,0.00,,,0.00,Wunderground v.1.12,2013-02-03 17:55:00,
2013-02-03 11:00:00,26.8,26.3,30.13,SSE,154,0.0,0.0,98,0.00,,,0.00,Wunderground v.1.12,2013-02-03 18:00:00,
2013-02-03 11:05:00,27.1,26.9,30.13,SSE,154,0.0,0.0,99,0.00,,,0.00,Wunderground v.1.12,2013-02-03 18:05:00,
2013-02-03 11:10:00,27.6,27.4,30.13,SSE,153,0.0,0.0,99,0.00,,,0.00,Wunderground v.1.12,2013-02-03 18:10:00,
2013-02-03 11:15:00,28.0,27.5,30.13,SSE,154,0.0,0.0,98,0.00,,,0.00,Wunderground v.1.12,2013-02-03 18:15:00,
2013-02-03 11:25:00,27.8,27.3,30.13,SSE,154,0.0,0.0,98,0.00,,,0.00,Wunderground v.1.12,2013-02-03 18:25:00,
2013-02-03 11:30:00,28.2,27.7,30.14,SSE,154,0.0,0.0,98,0.00,,,0.00,Wunderground v.1.12,2013-02-03 18:30:00,
2013-02-03 11:35:00,28.5,28.0,30.13,SSE,154,0.0,0.0,98,0.00,,,0.00,Wunderground v.1.12,2013-02-03 18:35:00,
2013-02-03 11:40:00,28.6,28.1,30.13,SSE,154,0.0,0.0,98,0.00,,,0.00,Wunderground v.1.12,2013-02-03 18:40:00,
2013-02-03 11:50:00,28.9,28.2,30.12,SSE,154,0.0,0.0,97,0.00,,,0.00,Wunderground v.1.12,2013-02-03 18:50:00,
2013-02-03 11:55:00,29.5,29.0,30.12,SSE,154,0.0,0.0,98,0.00,,,0.00,Wunderground v.1.12,2013-02-03 18:55:00,
2013-02-03 12:00:00,29.2,28.5,30.12,SSE,154,0.0,0.0,97,0.00,,,0.00,Wunderground v.1.12,2013-02-03 19:00:00,
2013-02-03 12:05:00,29.2,28.5,30.12,SSE,154,0.0,0.0,97,0.00,,,0.00,Wunderground v.1.12,2013-02-03 19:05:00,
2013-02-03 12:10:00,29.6,28.6,30.12,SSE,153,0.0,0.0,96,0.00,,,0.00,Wunderground v.1.12,2013-02-03 19:10:00,
2013-02-03 12:15:00,29.6,28.6,30.12,SSE,154,0.0,0.0,96,0.00,,,0.00,Wunderground v.1.12,2013-02-03 19:15:00,
2013-02-03 12:25:00,30.1,29.1,30.11,SSE,154,0.0,0.0,96,0.00,,,0.00,Wunderground v.1.12,2013-02-03 19:25:00,
2013-02-03 12:30:00,30.0,29.3,30.11,SSE,153,0.0,0.0,97,0.00,,,0.00,Wunderground v.1.12,2013-02-03 19:30:00,
2013-02-03 12:35:00,30.3,29.6,30.11,SSE,154,0.0,0.0,97,0.00,,,0.00,Wunderground v.1.12,2013-02-03 19:35:00,
2013-02-03 12:40:00,30.5,29.8,30.10,SSE,154,0.0,0.0,97,0.00,,,0.00,Wunderground v.1.12,2013-02-03 19:40:00,
2013-02-03 12:45:00,31.0,30.5,30.10,WSW,257,0.0,0.0,98,0.00,,,0.00,Wunderground v.1.12,2013-02-03 19:45:00,
2013-02-03 12:50:00,31.6,31.1,30.10,WSW,251,0.0,0.0,98,0.00,,,0.00,Wunderground v.1.12,2013-02-03 19:50:00,
2013-02-03 13:00:00,32.0,31.0,30.10,SSW,201,0.0,0.0,96,0.00,,,0.00,Wunderground v.1.12,2013-02-03 20:00:00,
2013-02-03 13:05:00,31.8,31.0,30.10,South,187,0.0,0.0,97,0.00,,,0.00,Wunderground v.1.12,2013-02-03 20:05:00,
2013-02-03 13:10:00,32.2,31.2,30.10,South,186,0.0,0.0,96,0.00,,,0.00,Wunderground v.1.12,2013-02-03 20:10:00,
2013-02-03 13:15:00,32.3,31.3,30.10,South,187,0.0,0.0,96,0.00,,,0.00,Wunderground v.1.12,2013-02-03 20:15:00,
2013-02-03 13:20:00,32.5,31.7,30.09,South,187,0.0,0.0,97,0.00,,,0.00,Wunderground v.1.12,2013-02-03 20:20:00,
2013-02-03 13:25:00,33.2,32.4,30.09,South,187,0.0,0.0,97,0.00,,,0.00,Wunderground v.1.12,2013-02-03 20:25:00,
2013-02-03 13:30:00,33.5,32.7,30.09,South,186,0.0,0.0,97,0.00,,,0.00,Wunderground v.1.12,2013-02-03 20:30:00,
2013-02-03 13:40:00,33.9,32.9,30.09,South,187,0.0,0.0,96,0.00,,,0.00,Wunderground v.1.12,2013-02-03 20:40:00,
2013-02-03 13:45:00,34.0,32.5,30.09,South,186,0.0,0.0,94,0.00,,,0.00,Wunderground v.1.12,2013-02-03 20:45:00,
2013-02-03 13:50:00,34.0,32.5,30.08,South,187,0.0,0.0,94,0.00,,,0.00,Wunderground v.1.12,2013-02-03 20:50:00,
2013-02-03 13:55:00,34.1,32.3,30.08,South,186,0.0,0.0,93,0.00,,,0.00,Wunderground v.1.12,2013-02-03 20:55:00,
2013-02-03 14:05:00,34.6,32.8,30.08,South,186,0.0,0.0,93,0.00,,,0.00,Wunderground v.1.12,2013-02-03 21:05:00,
2013-02-03 14:10:00,34.5,32.7,30.08,South,186,0.0,0.0,93,0.00,,,0.00,Wunderground v.1.12,2013-02-03 21:10:00,
2013-02-03 14:15:00,34.8,33.2,30.08,SSW,196,0.0,0.0,94,0.00,,,0.00,Wunderground v.1.12,2013-02-03 21:15:00,
2013-02-03 14:20:00,35.2,33.4,30.07,SSW,196,0.0,0.0,93,0.00,,,0.00,Wunderground v.1.12,2013-02-03 21:20:00,
2013-02-03 14:25:00,35.5,33.9,30.07,SSW,196,0.0,0.0,94,0.00,,,0.00,Wunderground v.1.12,2013-02-03 21:25:00,
2013-02-03 14:35:00,35.9,33.8,30.06,NE,51,0.0,0.0,92,0.00,,,0.00,Wunderground v.1.12,2013-02-03 21:35:00,
2013-02-03 14:40:00,36.2,33.5,30.06,North,0,0.0,0.0,90,0.00,,,0.00,Wunderground v.1.12,2013-02-03 21:40:00,
2013-02-03 14:45:00,36.4,33.5,30.06,North,0,0.0,0.0,89,0.00,,,0.00,Wunderground v.1.12,2013-02-03 21:45:00,
2013-02-03 14:55:00,37.2,33.7,30.05,East,92,0.0,0.0,87,0.00,,,0.00,Wunderground v.1.12,2013-02-03 21:55:00,
2013-02-03 15:00:00,37.6,33.8,30.06,North,0,0.0,0.0,86,0.00,,,0.00,Wunderground v.1.12,2013-02-03 22:00:00,
2013-02-03 15:10:00,38.1,33.4,30.05,North,0,0.0,0.0,83,0.00,,,0.00,Wunderground v.1.12,2013-02-03 22:10:00,
2013-02-03 15:15:00,38.3,33.3,30.05,NNE,12,0.0,0.0,82,0.00,,,0.00,Wunderground v.1.12,2013-02-03 22:15:00,
2013-02-03 15:20:00,38.5,33.2,30.05,North,0,0.0,0.0,81,0.00,,,0.00,Wunderground v.1.12,2013-02-03 22:20:00,
2013-02-03 15:25:00,38.2,33.2,30.05,SSE,165,0.0,0.0,82,0.00,,,0.00,Wunderground v.1.12,2013-02-03 22:25:00,
2013-02-03 15:30:00,38.6,32.6,30.06,North,0,0.0,0.0,79,0.00,,,0.00,Wunderground v.1.12,2013-02-03 22:30:00,
2013-02-03 15:40:00,38.7,32.7,30.05,North,0,0.0,0.0,79,0.00,,,0.00,Wunderground v.1.12,2013-02-03 22:40:00,
2013-02-03 15:45:00,38.7,32.7,30.05,North,0,0.0,0.0,79,0.00,,,0.00,Wunderground v.1.12,2013-02-03 22:45:00,
2013-02-03 15:50:00,39.0,33.0,30.05,South,169,0.0,0.0,79,0.00,,,0.00,Wunderground v.1.12,2013-02-03 22:50:00,
2013-02-03 15:55:00,38.9,32.9,30.05,North,0,0.0,0.0,79,0.00,,,0.00,Wunderground v.1.12,2013-02-03 22:55:00,
2013-02-03 16:00:00,39.2,33.2,30.05,East,94,0.0,0.0,79,0.00,,,0.00,Wunderground v.1.12,2013-02-03 23:00:00,
2013-02-03 16:05:00,39.3,33.3,30.06,NE,50,0.0,0.0,79,0.00,,,0.00,Wunderground v.1.12,2013-02-03 23:05:00,
2013-02-03 16:15:00,39.3,33.3,30.05,North,0,0.0,0.0,79,0.00,,,0.00,Wunderground v.1.12,2013-02-03 23:15:00,
2013-02-03 16:20:00,39.3,33.0,30.06,North,0,0.0,0.0,78,0.00,,,0.00,Wunderground v.1.12,2013-02-03 23:20:00,
2013-02-03 16:25:00,39.3,33.3,30.06,North,0,0.0,0.0,79,0.00,,,0.00,Wunderground v.1.12,2013-02-03 23:25:00,
2013-02-03 16:30:00,39.2,33.2,30.05,North,0,0.0,0.0,79,0.00,,,0.00,Wunderground v.1.12,2013-02-03 23:30:00,
2013-02-03 16:35:00,39.2,33.2,30.05,North,0,0.0,0.0,79,0.00,,,0.00,Wunderground v.1.12,2013-02-03 23:35:00,
2013-02-03 16:45:00,38.7,32.7,30.05,North,0,0.0,0.0,79,0.00,,,0.00,Wunderground v.1.12,2013-02-03 23:45:00,
2013-02-03 16:50:00,38.5,32.6,30.06,North,0,0.0,0.0,79,0.00,,,0.00,Wunderground v.1.12,2013-02-03 23:50:00,
2013-02-03 16:55:00,38.3,32.7,30.05,North,0,0.0,0.0,80,0.00,,,0.00,Wunderground v.1.12,2013-02-03 23:55:00,
2013-02-03 17:00:00,38.0,32.4,30.05,North,0,0.0,0.0,80,0.00,,,0.00,Wunderground v.1.12,2013-02-04 00:00:00,
2013-02-03 17:05:00,37.7,32.4,30.05,NE,55,0.0,0.0,81,0.00,,,0.00,Wunderground v.1.12,2013-02-04 00:05:00,
2013-02-03 17:10:00,37.5,32.5,30.05,ENE,58,0.0,0.0,82,0.00,,,0.00,Wunderground v.1.12,2013-02-04 00:10:00,
2013-02-03 17:20:00,37.1,32.1,30.05,North,0,0.0,0.0,82,0.00,,,0.00,Wunderground v.1.12,2013-02-04 00:20:00,
2013-02-03 17:25:00,36.9,31.9,30.05,North,0,0.0,0.0,82,0.00,,,0.00,Wunderground v.1.12,2013-02-04 00:25:00,
2013-02-03 17:30:00,36.9,31.9,30.05,North,0,0.0,0.0,82,0.00,,,0.00,Wunderground v.1.12,2013-02-04 00:30:00,
2013-02-03 17:35:00,36.8,32.1,30.05,North,0,0.0,0.0,83,0.00,,,0.00,Wunderground v.1.12,2013-02-04 00:35:00,
2013-02-03 17:45:00,36.6,31.9,30.05,North,0,0.0,0.0,83,0.00,,,0.00,Wunderground v.1.12,2013-02-04 00:45:00,
2013-02-03 17:50:00,36.1,31.7,30.05,North,0,0.0,0.0,84,0.00,,,0.00,Wunderground v.1.12,2013-02-04 00:50:00,
2013-02-03 17:55:00,35.9,31.8,30.05,North,0,0.0,0.0,85,0.00,,,0.00,Wunderground v.1.12,2013-02-04 00:55:00,
2013-02-03 18:00:00,35.9,31.8,30.05,North,0,0.0,0.0,85,0.00,,,0.00,Wunderground v.1.12,2013-02-04 01:00:00,
2013-02-03 18:05:00,35.9,31.5,30.05,North,0,0.0,0.0,84,0.00,,,0.00,Wunderground v.1.12,2013-02-04 01:05:00,
2013-02-03 18:10:00,36.1,31.4,30.06,North,0,0.0,0.0,83,0.00,,,0.00,Wunderground v.1.12,2013-02-04 01:10:00,
2013-02-03 18:20:00,36.4,31.7,30.05,North,0,0.0,0.0,83,0.00,,,0.00,Wunderground v.1.12,2013-02-04 01:20:00,
2013-02-03 18:25:00,36.3,31.3,30.05,North,0,0.0,0.0,82,0.00,,,0.00,Wunderground v.1.12,2013-02-04 01:25:00,
2013-02-03 18:30:00,36.3,31.3,30.05,North,0,0.0,0.0,82,0.00,,,0.00,Wunderground v.1.12,2013-02-04 01:30:00,
2013-02-03 18:35:00,36.3,31.6,30.05,North,0,0.0,0.0,83,0.00,,,0.00,Wunderground v.1.12,2013-02-04 01:35:00,
2013-02-03 18:40:00,36.3,31.6,30.05,North,0,0.0,0.0,83,0.00,,,0.00,Wunderground v.1.12,2013-02-04 01:40:00,
2013-02-03 18:45:00,36.3,31.6,30.05,North,0,0.0,0.0,83,0.00,,,0.00,Wunderground v.1.12,2013-02-04 01:45:00,
2013-02-03 18:55:00,36.2,31.5,30.05,North,0,0.0,0.0,83,0.00,,,0.00,Wunderground v.1.12,2013-02-04 01:55:00,
2013-02-03 19:00:00,35.9,31.2,30.05,North,0,0.0,0.0,83,0.00,,,0.00,Wunderground v.1.12,2013-02-04 02:00:00,
2013-02-03 19:05:00,36.0,31.3,30.05,North,0,0.0,0.0,83,0.00,,,0.00,Wunderground v.1.12,2013-02-04 02:05:00,
2013-02-03 19:10:00,35.9,31.2,30.05,North,0,0.0,0.0,83,0.00,,,0.00,Wunderground v.1.12,2013-02-04 02:10:00,
2013-02-03 19:15:00,35.9,31.2,30.04,North,0,0.0,0.0,83,0.00,,,0.00,Wunderground v.1.12,2013-02-04 02:15:00,
2013-02-03 19:20:00,35.7,31.3,30.04,North,0,0.0,0.0,84,0.00,,,0.00,Wunderground v.1.12,2013-02-04 02:20:00,
2013-02-03 19:25:00,36.0,31.6,30.05,North,0,0.0,0.0,84,0.00,,,0.00,Wunderground v.1.12,2013-02-04 02:25:00,
2013-02-03 19:30:00,35.8,31.1,30.05,North,0,0.0,0.0,83,0.00,,,0.00,Wunderground v.1.12,2013-02-04 02:30:00,
2013-02-03 19:35:00,35.9,31.2,30.04,North,0,0.0,0.0,83,0.00,,,0.00,Wunderground v.1.12,2013-02-04 02:35:00,
2013-02-03 19:40:00,35.9,31.2,30.04,North,0,0.0,0.0,83,0.00,,,0.00,Wunderground v.1.12,2013-02-04 02:40:00,
2013-02-03 19:45:00,35.7,31.3,30.04,North,0,0.0,0.0,84,0.00,,,0.00,Wunderground v.1.12,2013-02-04 02:45:00,
2013-02-03 19:55:00,35.4,30.8,30.04,North,0,0.0,0.0,83,0.00,,,0.00,Wunderground v.1.12,2013-02-04 02:55:00,
2013-02-03 20:05:00,35.8,31.4,30.04,NE,35,0.0,0.0,84,0.00,,,0.00,Wunderground v.1.12,2013-02-04 03:05:00,
2013-02-03 20:15:00,35.6,31.2,30.04,North,0,0.0,0.0,84,0.00,,,0.00,Wunderground v.1.12,2013-02-04 03:15:00,
2013-02-03 20:20:00,35.5,31.4,30.04,North,0,0.0,0.0,85,0.00,,,0.00,Wunderground v.1.12,2013-02-04 03:20:00,
2013-02-03 20:30:00,35.4,31.3,30.04,NNE,24,0.0,0.0,85,0.00,,,0.00,Wunderground v.1.12,2013-02-04 03:30:00,
2013-02-03 20:35:00,35.3,31.2,30.04,North,0,0.0,0.0,85,0.00,,,0.00,Wunderground v.1.12,2013-02-04 03:35:00,
2013-02-03 20:40:00,35.1,31.0,30.04,North,0,0.0,0.0,85,0.00,,,0.00,Wunderground v.1.12,2013-02-04 03:40:00,
2013-02-03 20:50:00,34.9,31.4,30.03,North,0,0.0,0.0,87,0.00,,,0.00,Wunderground v.1.12,2013-02-04 03:50:00,
2013-02-03 20:55:00,34.9,31.4,30.03,North,0,0.0,0.0,87,0.00,,,0.00,Wunderground v.1.12,2013-02-04 03:55:00,
2013-02-03 21:00:00,34.9,31.1,30.03,North,0,0.0,0.0,86,0.00,,,0.00,Wunderground v.1.12,2013-02-04 04:00:00,
2013-02-03 21:05:00,35.1,31.3,30.03,East,84,0.0,0.0,86,0.00,,,0.00,Wunderground v.1.12,2013-02-04 04:05:00,
2013-02-03 21:10:00,35.2,31.1,30.03,NE,41,0.0,0.0,85,0.00,,,0.00,Wunderground v.1.12,2013-02-04 04:10:00,
2013-02-03 21:15:00,35.5,31.4,30.04,NE,43,0.0,0.0,85,0.00,,,0.00,Wunderground v.1.12,2013-02-04 04:15:00,
2013-02-03 21:20:00,35.1,31.0,30.04,NE,36,0.0,0.0,85,0.00,,,0.00,Wunderground v.1.12,2013-02-04 04:20:00,
2013-02-03 21:30:00,35.3,31.5,30.04,North,0,0.0,0.0,86,0.00,,,0.00,Wunderground v.1.12,2013-02-04 04:30:00,
2013-02-03 21:35:00,35.1,31.3,30.04,West,274,0.0,0.0,86,0.00,,,0.00,Wunderground v.1.12,2013-02-04 04:35:00,
2013-02-03 21:40:00,35.2,31.4,30.03,North,3,0.0,0.0,86,0.00,,,0.00,Wunderground v.1.12,2013-02-04 04:40:00,
2013-02-03 21:45:00,35.4,31.3,30.03,North,0,0.0,0.0,85,0.00,,,0.00,Wunderground v.1.12,2013-02-04 04:45:00,
2013-02-03 21:55:00,35.4,31.6,30.03,North,0,0.0,0.0,86,0.00,,,0.00,Wunderground v.1.12,2013-02-04 04:55:00,
2013-02-03 22:05:00,35.2,31.1,30.03,N/A,-737280,0.0,1.0,85,0.00,,,0.00,Wunderground v.1.12,2013-02-04 05:05:00,
2013-02-03 22:10:00,35.2,31.1,30.03,N/A,-737280,0.0,1.0,85,0.00,,,0.00,Wunderground v.1.12,2013-02-04 05:10:00,
2013-02-03 22:15:00,35.6,31.2,30.02,N/A,-737280,0.0,0.0,84,0.00,,,0.00,Wunderground v.1.12,2013-02-04 05:15:00,
2013-02-03 22:20:00,35.6,31.2,30.02,N/A,-737280,0.0,0.0,84,0.00,,,0.00,Wunderground v.1.12,2013-02-04 05:20:00,
2013-02-03 22:25:00,35.7,31.3,30.02,North,11,0.0,0.0,84,0.00,,,0.00,Wunderground v.1.12,2013-02-04 05:25:00,
2013-02-03 22:30:00,35.6,31.5,30.02,NE,55,0.0,0.0,85,0.00,,,0.00,Wunderground v.1.12,2013-02-04 05:30:00,
2013-02-03 22:35:00,35.7,31.6,30.02,NNE,30,0.0,0.0,85,0.00,,,0.00,Wunderground v.1.12,2013-02-04 05:35:00,
2013-02-03 22:40:00,35.7,31.3,30.02,North,0,0.0,0.0,84,0.00,,,0.00,Wunderground v.1.12,2013-02-04 05:40:00,
2013-02-03 22:50:00,35.8,31.4,30.02,North,0,0.0,0.0,84,0.00,,,0.00,Wunderground v.1.12,2013-02-04 05:50:00,
2013-02-03 22:55:00,35.5,31.4,30.01,North,0,0.0,0.0,85,0.00,,,0.00,Wunderground v.1.12,2013-02-04 05:55:00,
2013-02-03 23:00:00,35.6,31.8,30.02,North,0,0.0,0.0,86,0.00,,,0.00,Wunderground v.1.12,2013-02-04 06:00:00,
2013-02-03 23:05:00,35.2,31.4,30.02,ENE,67,0.0,0.0,86,0.00,,,0.00,Wunderground v.1.12,2013-02-04 06:05:00,
2013-02-03 23:10:00,35.1,31.3,30.02,North,0,0.0,0.0,86,0.00,,,0.00,Wunderground v.1.12,2013-02-04 06:10:00,
2013-02-03 23:20:00,34.7,31.5,30.02,North,0,0.0,0.0,88,0.00,,,0.00,Wunderground v.1.12,2013-02-04 06:20:00,
2013-02-03 23:25:00,34.6,31.4,30.01,North,0,0.0,0.0,88,0.00,,,0.00,Wunderground v.1.12,2013-02-04 06:25:00,
2013-02-03 23:30:00,34.6,31.4,30.02,North,0,0.0,0.0,88,0.00,,,0.00,Wunderground v.1.12,2013-02-04 06:30:00,
2013-02-03 23:35:00,34.6,31.4,30.01,North,0,0.0,0.0,88,0.00,,,0.00,Wunderground v.1.12,2013-02-04 06:35:00,
2013-02-03 23:40:00,34.5,31.3,30.01,North,0,0.0,0.0,88,0.00,,,0.00,Wunderground v.1.12,2013-02-04 06:40:00,
2013-02-03 23:50:00,34.6,31.1,30.01,North,0,0.0,0.0,87,0.00,,,0.00,Wunderground v.1.12,2013-02-04 06:50:00,
2013-02-03 23:55:00,34.6,31.1,30.01,North,0,0.0,0.0,87,0.00,,,0.00,Wunderground v.1.12,2013-02-04 06:55:00,